owner,sensor,date,latitude,longitude,vertical_datum,sea_water_speed,direction_of_sea_water_velocity,upward_sea_water_velocity,qcFlag
BP,ioos:station:wmo:42369:4,2022-06-01T00:00:00Z,27.2143,-90.2838,1343.0,1.5,58.4,-9999.0,'111331111,111111111,999999991'
BP,ioos:station:wmo:42369:4,2022-06-01T00:20:00Z,27.2142,-90.2843,1343.0,1.6,18.4,-9999.0,'111331111,111111111,999999991'
BP,ioos:station:wmo:42369:4,2022-06-01T00:40:00Z,27.2142,-90.2846,1343.0,1.9,32.0,-9999.0,'111331111,111111111,999999991'
BP,ioos:station:wmo:42369:4,2022-06-01T01:00:00Z,27.2142,-90.2846,1343.0,2.3,17.7,-9999.0,'111331111,111111111,999999991'
BP,ioos:station:wmo:42369:4,2022-06-01T01:20:00Z,27.2142,-90.2848,1343.0,2.3,34.4,-9999.0,'111331111,111111111,999999991'
BP,ioos:station:wmo:42369:4,2022-06-01T01:40:00Z,27.2142,-90.2849,1343.0,1.1,48.8,-9999.0,'111331111,111111111,999999991'
BP,ioos:station:wmo:42369:4,2022-06-01T02:00:00Z,27.2142,-90.2850,1343.0,1.7,57.3,-9999.0,'111331111,111111111,999999991'
BP,ioos:station:wmo:42369:4,2022-06-01T02:20:00Z,27.2142,-90.2850,1343.0,1.2,80.5,-9999.0,'111331111,111111111,999999991'
BP,ioos:station:wmo:42369:4,2022-06-01T02:40:00Z,27.2142,-90.2851,1343.0,1.7,72.6,-9999.0,'111331111,111111111,999999991'
BP,ioos:station:wmo:42369:4,2022-06-01T03:00:00Z,27.2141,-90.2853,1343.0,1.9,111.3,-9999.0,'111331111,111111111,999999991'
BP,ioos:station:wmo:42369:4,2022-06-01T03:20:00Z,27.2141,-90.2854,1343.0,2.1,131.2,-9999.0,'111331111,111111111,999999991'
BP,ioos:station:wmo:42369:4,2022-06-01T03:40:00Z,27.2141,-90.2854,1343.0,2.7,121.3,-9999.0,'111331111,111111111,999999991'
BP,ioos:station:wmo:42369:4,2022-06-01T04:00:00Z,27.2140,-90.2859,1343.0,2.9,143.5,-9999.0,'111331111,111111111,999999991'
BP,ioos:station:wmo:42369:4,2022-06-01T04:20:00Z,27.2140,-90.2859,1343.0,2.5,166.0,-9999.0,'111331111,111111111,999999991'
BP,ioos:station:wmo:42369:4,2022-06-01T04:40:00Z,27.2140,-90.2861,1343.0,1.8,180.0,-9999.0,'111331111,111111111,999999991'
BP,ioos:station:wmo:42369:4,2022-06-01T05:00:00Z,27.2140,-90.2862,1343.0,0.9,206.6,-9999.0,'111331111,111111111,999999991'
BP,ioos:station:wmo:42369:4,2022-06-01T05:20:00Z,27.2139,-90.2865,1343.0,2.2,201.8,-9999.0,'111331111,111111111,999999991'
BP,ioos:station:wmo:42369:4,2022-06-01T05:40:00Z,27.2139,-90.2866,1343.0,2.2,213.7,-9999.0,'111331111,111111111,999999991'
BP,ioos:station:wmo:42369:4,2022-06-01T06:00:00Z,27.2138,-90.2867,1343.0,1.8,186.3,-9999.0,'111331111,111111111,999999991'
BP,ioos:station:wmo:42369:4,2022-06-01T06:20:00Z,27.2139,-90.2867,1343.0,2.2,204.2,-9999.0,'111331111,111111111,999999991'
BP,ioos:station:wmo:42369:4,2022-06-01T06:40:00Z,27.2139,-90.2868,1343.0,2.9,213.7,-9999.0,'111331111,111111111,999999991'
BP,ioos:station:wmo:42369:4,2022-06-01T07:00:00Z,27.2138,-90.2869,1343.0,2.7,214.3,-9999.0,'111331111,111111111,999999991'
BP,ioos:station:wmo:42369:4,2022-06-01T07:20:00Z,27.2137,-90.2869,1343.0,2.0,255.3,-9999.0,'111331111,111111111,999999991'
BP,ioos:station:wmo:42369:4,2022-06-01T07:40:00Z,27.2137,-90.2869,1343.0,1.3,270.0,-9999.0,'111331111,111111111,999999991'
BP,ioos:station:wmo:42369:4,2022-06-01T08:00:00Z,27.2137,-90.2869,1343.0,1.7,283.2,-9999.0,'111331111,111111111,999999991'
BP,ioos:station:wmo:42369:4,2022-06-01T08:20:00Z,27.2137,-90.2869,1343.0,1.6,322.4,-9999.0,'111331111,111111111,999999991'
BP,ioos:station:wmo:42369:4,2022-06-01T08:40:00Z,27.2138,-90.2867,1343.0,0.7,0.0,-9999.0,'111331111,111441111,999999991'
BP,ioos:station:wmo:42369:4,2022-06-01T09:00:00Z,27.2139,-90.2866,1343.0,1.1,318.8,-9999.0,'111331111,111111111,999999991'
BP,ioos:station:wmo:42369:4,2022-06-01T09:20:00Z,27.2139,-90.2866,1343.0,1.1,338.2,-9999.0,'111331111,111111111,999999991'
BP,ioos:station:wmo:42369:4,2022-06-01T09:40:00Z,27.2139,-90.2866,1343.0,1.6,325.3,-9999.0,'111331111,111111111,999999991'
BP,ioos:station:wmo:42369:4,2022-06-01T10:00:00Z,27.2139,-90.2866,1343.0,0.8,346.0,-9999.0,'111331111,111111111,999999991'
BP,ioos:station:wmo:42369:4,2022-06-01T10:20:00Z,27.2139,-90.2866,1343.0,0.5,180.0,-9999.0,'111331111,111111111,999999991'
BP,ioos:station:wmo:42369:4,2022-06-01T10:40:00Z,27.2140,-90.2864,1343.0,1.2,0.0,-9999.0,'111331111,111441111,999999991'
BP,ioos:station:wmo:42369:4,2022-06-01T11:00:00Z,27.2140,-90.2863,1343.0,1.5,336.8,-9999.0,'111331111,111111111,999999991'
BP,ioos:station:wmo:42369:4,2022-06-01T11:20:00Z,27.2140,-90.2863,1343.0,1.1,5.2,-9999.0,'111331111,111111111,999999991'
BP,ioos:station:wmo:42369:4,2022-06-01T11:40:00Z,27.2140,-90.2863,1343.0,1.1,344.7,-9999.0,'111331111,111111111,999999991'
BP,ioos:station:wmo:42369:4,2022-06-01T12:00:00Z,27.2140,-90.2862,1343.0,1.0,16.7,-9999.0,'111331111,111111111,999999991'
BP,ioos:station:wmo:42369:4,2022-06-01T12:20:00Z,27.2140,-90.2861,1343.0,1.3,341.6,-9999.0,'111331111,111111111,999999991'
BP,ioos:station:wmo:42369:4,2022-06-01T12:40:00Z,27.2140,-90.2860,1343.0,2.3,2.5,-9999.0,'111331111,111111111,999999991'
BP,ioos:station:wmo:42369:4,2022-06-01T13:00:00Z,27.2140,-90.2860,1343.0,2.1,39.1,-9999.0,'111331111,111111111,999999991'
BP,ioos:station:wmo:42369:4,2022-06-01T13:20:00Z,27.2141,-90.2858,1343.0,2.3,61.2,-9999.0,'111331111,111111111,999999991'
BP,ioos:station:wmo:42369:4,2022-06-01T13:40:00Z,27.2141,-90.2858,1343.0,2.8,34.8,-9999.0,'111331111,111111111,999999991'
BP,ioos:station:wmo:42369:4,2022-06-01T14:00:00Z,27.2141,-90.2856,1343.0,2.6,24.6,-9999.0,'111331111,111111111,999999991'
BP,ioos:station:wmo:42369:4,2022-06-01T14:20:00Z,27.2141,-90.2856,1343.0,1.9,53.7,-9999.0,'111331111,111111111,999999991'
BP,ioos:station:wmo:42369:4,2022-06-01T14:40:00Z,27.2141,-90.2856,1343.0,2.9,24.8,-9999.0,'111331111,111111111,999999991'
BP,ioos:station:wmo:42369:4,2022-06-01T15:00:00Z,27.2141,-90.2855,1343.0,2.2,56.3,-9999.0,'111331111,111111111,999999991'
BP,ioos:station:wmo:42369:4,2022-06-01T15:20:00Z,27.2140,-90.2854,1343.0,2.4,27.6,-9999.0,'111331111,111111111,999999991'
BP,ioos:station:wmo:42369:4,2022-06-01T15:40:00Z,27.2140,-90.2855,1343.0,2.5,25.6,-9999.0,'111331111,111111111,999999991'
BP,ioos:station:wmo:42369:4,2022-06-01T16:00:00Z,27.2139,-90.2855,1343.0,1.9,27.9,-9999.0,'111331111,111111111,999999991'
BP,ioos:station:wmo:42369:4,2022-06-01T16:20:00Z,27.2139,-90.2855,1343.0,2.1,48.8,-9999.0,'111331111,111111111,999999991'
BP,ioos:station:wmo:42369:4,2022-06-01T16:40:00Z,27.2139,-90.2855,1343.0,2.4,7.1,-9999.0,'111331111,111111111,999999991'
BP,ioos:station:wmo:42369:4,2022-06-01T17:00:00Z,27.2138,-90.2856,1343.0,1.6,333.4,-9999.0,'111331111,111111111,999999991'
BP,ioos:station:wmo:42369:4,2022-06-01T17:20:00Z,27.2137,-90.2856,1343.0,1.8,350.5,-9999.0,'111331111,111111111,999999991'
BP,ioos:station:wmo:42369:4,2022-06-01T17:40:00Z,27.2137,-90.2856,1343.0,1.6,352.9,-9999.0,'111331111,111111111,999999991'
BP,ioos:station:wmo:42369:4,2022-06-01T18:00:00Z,27.2136,-90.2859,1343.0,1.9,354.0,-9999.0,'111331111,111111111,999999991'
BP,ioos:station:wmo:42369:4,2022-06-01T18:20:00Z,27.2136,-90.2860,1343.0,2.3,5.0,-9999.0,'111331111,111111111,999999991'
BP,ioos:station:wmo:42369:4,2022-06-01T18:40:00Z,27.2136,-90.2860,1343.0,2.0,0.0,-9999.0,'111331111,111441111,999999991'
BP,ioos:station:wmo:42369:4,2022-06-01T20:00:00Z,27.2135,-90.2862,1343.0,4.9,356.5,-9999.0,'111111111,111111111,999999991'
BP,ioos:station:wmo:42369:4,2022-06-01T20:40:00Z,27.2135,-90.2862,1343.0,3.2,18.4,-9999.0,'111111111,111111111,999999991'
BP,ioos:station:wmo:42369:4,2022-06-01T21:00:00Z,27.2136,-90.2863,1343.0,4.2,11.0,-9999.0,'111111111,111111111,999999991'
BP,ioos:station:wmo:42369:4,2022-06-01T21:20:00Z,27.2136,-90.2863,1343.0,2.9,24.8,-9999.0,'111331111,111111111,999999991'
BP,ioos:station:wmo:42369:4,2022-06-01T21:40:00Z,27.2136,-90.2863,1343.0,3.5,6.5,-9999.0,'111111111,111111111,999999991'
BP,ioos:station:wmo:42369:4,2022-06-01T22:00:00Z,27.2136,-90.2863,1343.0,2.3,7.4,-9999.0,'111331111,111111111,999999991'
BP,ioos:station:wmo:42369:4,2022-06-01T22:20:00Z,27.2135,-90.2864,1343.0,2.3,48.6,-9999.0,'111331111,111111111,999999991'
BP,ioos:station:wmo:42369:4,2022-06-01T23:00:00Z,27.2136,-90.2863,1343.0,3.3,8.6,-9999.0,'111111111,111111111,999999991'
BP,ioos:station:wmo:42369:4,2022-06-01T23:20:00Z,27.2136,-90.2863,1343.0,4.1,34.1,-9999.0,'111111111,111111111,999999991'
BP,ioos:station:wmo:42369:4,2022-06-01T23:40:00Z,27.2136,-90.2861,1343.0,3.8,17.0,-9999.0,'111111111,111111111,999999991'
BP,ioos:station:wmo:42369:4,2022-06-02T00:00:00Z,27.2137,-90.2860,1343.0,4.0,26.6,-9999.0,'111111111,111111111,999999991'
BP,ioos:station:wmo:42369:4,2022-06-02T00:20:00Z,27.2137,-90.2859,1343.0,3.1,33.2,-9999.0,'111111111,111111111,999999991'
BP,ioos:station:wmo:42369:4,2022-06-02T00:40:00Z,27.2138,-90.2859,1343.0,3.4,42.6,-9999.0,'111111111,111111111,999999991'
BP,ioos:station:wmo:42369:4,2022-06-02T01:00:00Z,27.2138,-90.2856,1343.0,3.3,45.0,-9999.0,'111111111,111111111,999999991'
BP,ioos:station:wmo:42369:4,2022-06-02T01:20:00Z,27.2138,-90.2856,1343.0,2.5,53.1,-9999.0,'111331111,111111111,999999991'
BP,ioos:station:wmo:42369:4,2022-06-02T02:00:00Z,27.2139,-90.2856,1343.0,3.5,42.7,-9999.0,'111111111,111111111,999999991'
BP,ioos:station:wmo:42369:4,2022-06-02T02:20:00Z,27.2139,-90.2856,1343.0,3.2,48.8,-9999.0,'111111111,111111111,999999991'
BP,ioos:station:wmo:42369:4,2022-06-02T02:40:00Z,27.2139,-90.2857,1343.0,3.1,19.0,-9999.0,'111111111,111111111,999999991'
BP,ioos:station:wmo:42369:4,2022-06-02T03:20:00Z,27.2140,-90.2858,1343.0,3.4,52.1,-9999.0,'111111111,111111111,999999991'
BP,ioos:station:wmo:42369:4,2022-06-02T03:40:00Z,27.2139,-90.2858,1343.0,3.6,57.7,-9999.0,'111111111,111111111,999999991'
BP,ioos:station:wmo:42369:4,2022-06-02T04:00:00Z,27.2140,-90.2859,1343.0,3.3,48.7,-9999.0,'111111111,111111111,999999991'
BP,ioos:station:wmo:42369:4,2022-06-02T04:20:00Z,27.2140,-90.2860,1343.0,1.9,58.0,-9999.0,'111331111,111111111,999999991'
BP,ioos:station:wmo:42369:4,2022-06-02T05:00:00Z,27.2140,-90.2860,1343.0,1.5,53.1,-9999.0,'111331111,111111111,999999991'
BP,ioos:station:wmo:42369:4,2022-06-02T05:20:00Z,27.2140,-90.2860,1343.0,1.3,122.5,-9999.0,'111331111,111111111,999999991'
BP,ioos:station:wmo:42369:4,2022-06-02T05:40:00Z,27.2140,-90.2860,1343.0,1.1,84.8,-9999.0,'111331111,111111111,999999991'
BP,ioos:station:wmo:42369:4,2022-06-02T06:00:00Z,27.2139,-90.2860,1343.0,0.3,315.0,-9999.0,'111331111,111111111,999999991'
BP,ioos:station:wmo:42369:4,2022-06-02T06:40:00Z,27.2139,-90.2860,1343.0,0.4,194.0,-9999.0,'111331111,111111111,999999991'
BP,ioos:station:wmo:42369:4,2022-06-02T07:00:00Z,27.2140,-90.2860,1343.0,0.2,63.4,-9999.0,'111331111,111111111,999999991'
BP,ioos:station:wmo:42369:4,2022-06-02T07:20:00Z,27.2139,-90.2861,1343.0,0.6,315.0,-9999.0,'111331111,111111111,999999991'
BP,ioos:station:wmo:42369:4,2022-06-02T07:40:00Z,27.2140,-90.2861,1343.0,0.2,0.0,-9999.0,'111331111,111441111,999999991'
BP,ioos:station:wmo:42369:4,2022-06-02T08:20:00Z,27.2141,-90.2860,1343.0,1.0,66.0,-9999.0,'111331111,111111111,999999991'
BP,ioos:station:wmo:42369:4,2022-06-02T09:00:00Z,27.2142,-90.2856,1343.0,1.8,317.3,-9999.0,'111331111,111111111,999999991'
BP,ioos:station:wmo:42369:4,2022-06-02T09:40:00Z,27.2142,-90.2854,1343.0,1.1,174.8,-9999.0,'111331111,111111111,999999991'
BP,ioos:station:wmo:42369:4,2022-06-02T10:20:00Z,27.2144,-90.2853,1343.0,1.5,126.9,-9999.0,'111331111,111111111,999999991'
BP,ioos:station:wmo:42369:4,2022-06-02T11:00:00Z,27.2143,-90.2853,1343.0,0.4,116.6,-9999.0,'111331111,111111111,999999991'
BP,ioos:station:wmo:42369:4,2022-06-02T11:20:00Z,27.2143,-90.2853,1343.0,0.9,125.5,-9999.0,'111331111,111111111,999999991'
BP,ioos:station:wmo:42369:4,2022-06-02T11:40:00Z,27.2143,-90.2853,1343.0,1.0,180.0,-9999.0,'111331111,111111111,999999991'
BP,ioos:station:wmo:42369:4,2022-06-02T12:00:00Z,27.2143,-90.2853,1343.0,0.5,306.9,-9999.0,'111331111,111111111,999999991'
BP,ioos:station:wmo:42369:4,2022-06-02T12:20:00Z,27.2143,-90.2853,1343.0,0.6,288.4,-9999.0,'111331111,111111111,999999991'
BP,ioos:station:wmo:42369:4,2022-06-02T12:40:00Z,27.2144,-90.2850,1343.0,1.4,309.3,-9999.0,'111331111,111111111,999999991'
BP,ioos:station:wmo:42369:4,2022-06-02T13:00:00Z,27.2144,-90.2850,1343.0,1.8,279.5,-9999.0,'111331111,111111111,999999991'
BP,ioos:station:wmo:42369:4,2022-06-02T13:40:00Z,27.2143,-90.2850,1343.0,1.1,311.2,-9999.0,'111331111,111111111,999999991'
BP,ioos:station:wmo:42369:4,2022-06-02T14:00:00Z,27.2143,-90.2850,1343.0,1.3,315.0,-9999.0,'111331111,111111111,999999991'
BP,ioos:station:wmo:42369:4,2022-06-02T14:20:00Z,27.2143,-90.2850,1343.0,1.3,0.0,-9999.0,'111331111,111441111,999999991'
BP,ioos:station:wmo:42369:4,2022-06-02T14:40:00Z,27.2144,-90.2851,1343.0,0.9,12.5,-9999.0,'111331111,111111111,999999991'
BP,ioos:station:wmo:42369:4,2022-06-02T15:00:00Z,27.2144,-90.2851,1343.0,0.8,330.3,-9999.0,'111331111,111111111,999999991'
BP,ioos:station:wmo:42369:4,2022-06-02T15:40:00Z,27.2144,-90.2850,1343.0,0.6,279.5,-9999.0,'111331111,111111111,999999991'
BP,ioos:station:wmo:42369:4,2022-06-02T16:00:00Z,27.2143,-90.2849,1343.0,0.2,270.0,-9999.0,'111331111,111111111,999999991'
BP,ioos:station:wmo:42369:4,2022-06-02T16:20:00Z,27.2143,-90.2849,1343.0,0.7,105.9,-9999.0,'111331111,111111111,999999991'
BP,ioos:station:wmo:42369:4,2022-06-02T16:40:00Z,27.2142,-90.2848,1343.0,0.6,315.0,-9999.0,'111331111,111111111,999999991'
BP,ioos:station:wmo:42369:4,2022-06-02T17:00:00Z,27.2142,-90.2848,1343.0,1.1,322.1,-9999.0,'111331111,111111111,999999991'
BP,ioos:station:wmo:42369:4,2022-06-02T17:20:00Z,27.2140,-90.2849,1343.0,2.4,318.4,-9999.0,'111331111,111111111,999999991'
BP,ioos:station:wmo:42369:4,2022-06-02T17:40:00Z,27.2140,-90.2849,1343.0,2.6,330.5,-9999.0,'111331111,111111111,999999991'
BP,ioos:station:wmo:42369:4,2022-06-02T18:00:00Z,27.2139,-90.2850,1343.0,2.6,313.5,-9999.0,'111331111,111111111,999999991'
BP,ioos:station:wmo:42369:4,2022-06-02T18:20:00Z,27.2139,-90.2850,1343.0,2.5,323.1,-9999.0,'111331111,111111111,999999991'
BP,ioos:station:wmo:42369:4,2022-06-02T18:40:00Z,27.2137,-90.2853,1343.0,2.1,318.8,-9999.0,'111331111,111111111,999999991'
BP,ioos:station:wmo:42369:4,2022-06-02T19:00:00Z,27.2137,-90.2854,1343.0,1.4,0.0,-9999.0,'111331111,111441111,999999991'
BP,ioos:station:wmo:42369:4,2022-06-02T19:20:00Z,27.2137,-90.2854,1343.0,1.9,357.0,-9999.0,'111331111,111111111,999999991'
BP,ioos:station:wmo:42369:4,2022-06-02T19:40:00Z,27.2136,-90.2859,1343.0,2.7,328.7,-9999.0,'111331111,111111111,999999991'
BP,ioos:station:wmo:42369:4,2022-06-02T20:00:00Z,27.2136,-90.2858,1343.0,2.8,329.7,-9999.0,'111331111,111111111,999999991'
BP,ioos:station:wmo:42369:4,2022-06-02T20:40:00Z,27.2138,-90.2854,1343.0,1.7,0.0,-9999.0,'111331111,111441111,999999991'
BP,ioos:station:wmo:42369:4,2022-06-02T21:00:00Z,27.2139,-90.2852,1343.0,2.3,34.4,-9999.0,'111331111,111111111,999999991'
BP,ioos:station:wmo:42369:4,2022-06-02T21:20:00Z,27.2140,-90.2850,1343.0,1.8,70.6,-9999.0,'111331111,111111111,999999991'
BP,ioos:station:wmo:42369:4,2022-06-02T21:40:00Z,27.2140,-90.2849,1343.0,2.2,46.8,-9999.0,'111331111,111111111,999999991'
BP,ioos:station:wmo:42369:4,2022-06-02T22:00:00Z,27.2140,-90.2849,1343.0,2.8,55.2,-9999.0,'111331111,111111111,999999991'
BP,ioos:station:wmo:42369:4,2022-06-02T22:20:00Z,27.2139,-90.2849,1343.0,3.3,72.1,-9999.0,'111111111,111111111,999999991'
BP,ioos:station:wmo:42369:4,2022-06-02T22:40:00Z,27.2139,-90.2849,1343.0,2.6,67.4,-9999.0,'111331111,111111111,999999991'
BP,ioos:station:wmo:42369:4,2022-06-02T23:00:00Z,27.2139,-90.2849,1343.0,3.4,69.4,-9999.0,'111111111,111111111,999999991'
BP,ioos:station:wmo:42369:4,2022-06-02T23:20:00Z,27.2139,-90.2852,1343.0,1.7,86.6,-9999.0,'111331111,111111111,999999991'
BP,ioos:station:wmo:42369:4,2022-06-02T23:40:00Z,27.2139,-90.2852,1343.0,2.2,92.6,-9999.0,'111331111,111111111,999999991'
BP,ioos:station:wmo:42369:4,2022-06-03T00:40:00Z,27.2139,-90.2853,1343.0,2.3,80.1,-9999.0,'111331111,111111111,999999991'
BP,ioos:station:wmo:42369:4,2022-06-03T01:00:00Z,27.2139,-90.2851,1343.0,2.5,76.0,-9999.0,'111331111,111111111,999999991'
BP,ioos:station:wmo:42369:4,2022-06-03T01:20:00Z,27.2138,-90.2851,1343.0,2.9,90.0,-9999.0,'111331111,111111111,999999991'
BP,ioos:station:wmo:42369:4,2022-06-03T01:40:00Z,27.2140,-90.2851,1343.0,3.1,103.1,-9999.0,'111111111,111111111,999999991'
BP,ioos:station:wmo:42369:4,2022-06-03T02:00:00Z,27.2141,-90.2850,1343.0,3.4,118.1,-9999.0,'111111111,111111111,999999991'
BP,ioos:station:wmo:42369:4,2022-06-03T02:20:00Z,27.2142,-90.2849,1343.0,3.2,118.2,-9999.0,'111111111,111111111,999999991'
BP,ioos:station:wmo:42369:4,2022-06-03T02:40:00Z,27.2142,-90.2849,1343.0,2.8,112.9,-9999.0,'111331111,111111111,999999991'
BP,ioos:station:wmo:42369:4,2022-06-03T03:00:00Z,27.2143,-90.2848,1343.0,2.4,152.4,-9999.0,'111331111,111111111,999999991'
BP,ioos:station:wmo:42369:4,2022-06-03T03:20:00Z,27.2143,-90.2848,1343.0,1.9,180.0,-9999.0,'111331111,111111111,999999991'
BP,ioos:station:wmo:42369:4,2022-06-03T03:40:00Z,27.2143,-90.2848,1343.0,2.3,175.0,-9999.0,'111331111,111111111,999999991'
BP,ioos:station:wmo:42369:4,2022-06-03T04:00:00Z,27.2144,-90.2848,1343.0,2.8,186.1,-9999.0,'111331111,111111111,999999991'
BP,ioos:station:wmo:42369:4,2022-06-03T04:20:00Z,27.2144,-90.2848,1343.0,2.8,212.0,-9999.0,'111331111,111111111,999999991'
BP,ioos:station:wmo:42369:4,2022-06-03T04:40:00Z,27.2145,-90.2849,1343.0,2.6,207.6,-9999.0,'111331111,111111111,999999991'
BP,ioos:station:wmo:42369:4,2022-06-03T05:00:00Z,27.2145,-90.2850,1343.0,3.1,213.2,-9999.0,'111111111,111111111,999999991'
BP,ioos:station:wmo:42369:4,2022-06-03T05:20:00Z,27.2145,-90.2850,1343.0,3.1,222.4,-9999.0,'111111111,111111111,999999991'
BP,ioos:station:wmo:42369:4,2022-06-03T05:40:00Z,27.2145,-90.2850,1343.0,3.2,209.7,-9999.0,'111111111,111111111,999999991'
BP,ioos:station:wmo:42369:4,2022-06-03T06:00:00Z,27.2145,-90.2849,1343.0,2.6,207.6,-9999.0,'111331111,111111111,999999991'
BP,ioos:station:wmo:42369:4,2022-06-03T06:20:00Z,27.2145,-90.2850,1343.0,3.6,213.7,-9999.0,'111111111,111111111,999999991'
BP,ioos:station:wmo:42369:4,2022-06-03T06:40:00Z,27.2146,-90.2850,1343.0,3.5,213.2,-9999.0,'111111111,111111111,999999991'
BP,ioos:station:wmo:42369:4,2022-06-03T07:20:00Z,27.2146,-90.2849,1343.0,3.6,221.6,-9999.0,'111111111,111111111,999999991'
BP,ioos:station:wmo:42369:4,2022-06-03T07:40:00Z,27.2146,-90.2849,1343.0,4.3,237.4,-9999.0,'111111111,111111111,999999991'
BP,ioos:station:wmo:42369:4,2022-06-03T08:00:00Z,27.2146,-90.2849,1343.0,2.5,248.6,-9999.0,'111331111,111111111,999999991'
BP,ioos:station:wmo:42369:4,2022-06-03T08:20:00Z,27.2146,-90.2847,1343.0,2.8,242.5,-9999.0,'111331111,111111111,999999991'
BP,ioos:station:wmo:42369:4,2022-06-03T08:40:00Z,27.2146,-90.2846,1343.0,3.1,281.3,-9999.0,'111111111,111111111,999999991'
BP,ioos:station:wmo:42369:4,2022-06-03T09:00:00Z,27.2146,-90.2845,1343.0,2.7,272.1,-9999.0,'111331111,111111111,999999991'
BP,ioos:station:wmo:42369:4,2022-06-03T09:20:00Z,27.2147,-90.2842,1343.0,2.9,287.8,-9999.0,'111331111,111111111,999999991'
BP,ioos:station:wmo:42369:4,2022-06-03T09:40:00Z,27.2147,-90.2839,1343.0,3.1,275.5,-9999.0,'111111111,111111111,999999991'
BP,ioos:station:wmo:42369:4,2022-06-03T10:00:00Z,27.2148,-90.2836,1343.0,2.7,287.1,-9999.0,'111331111,111111111,999999991'
BP,ioos:station:wmo:42369:4,2022-06-03T10:20:00Z,27.2148,-90.2835,1343.0,3.7,268.5,-9999.0,'111111111,111111111,999999991'
BP,ioos:station:wmo:42369:4,2022-06-03T10:40:00Z,27.2148,-90.2832,1343.0,3.1,292.5,-9999.0,'111111111,111111111,999999991'
BP,ioos:station:wmo:42369:4,2022-06-03T11:00:00Z,27.2148,-90.2830,1343.0,1.6,304.7,-9999.0,'111331111,111111111,999999991'
BP,ioos:station:wmo:42369:4,2022-06-03T11:20:00Z,27.2148,-90.2829,1343.0,2.4,297.6,-9999.0,'111331111,111111111,999999991'
BP,ioos:station:wmo:42369:4,2022-06-03T11:40:00Z,27.2148,-90.2827,1343.0,1.6,270.0,-9999.0,'111331111,111111111,999999991'
BP,ioos:station:wmo:42369:4,2022-06-03T12:00:00Z,27.2147,-90.2824,1343.0,1.3,302.5,-9999.0,'111331111,111111111,999999991'
BP,ioos:station:wmo:42369:4,2022-06-03T12:20:00Z,27.2147,-90.2823,1343.0,3.2,308.7,-9999.0,'111111111,111111111,999999991'
BP,ioos:station:wmo:42369:4,2022-06-03T12:40:00Z,27.2146,-90.2820,1343.0,2.7,331.6,-9999.0,'111331111,111111111,999999991'
BP,ioos:station:wmo:42369:4,2022-06-03T13:00:00Z,27.2146,-90.2819,1343.0,2.1,315.0,-9999.0,'111331111,111111111,999999991'
BP,ioos:station:wmo:42369:4,2022-06-03T13:20:00Z,27.2145,-90.2816,1343.0,2.3,344.7,-9999.0,'111331111,111111111,999999991'
BP,ioos:station:wmo:42369:4,2022-06-03T13:40:00Z,27.2145,-90.2814,1343.0,2.3,342.3,-9999.0,'111331111,111111111,999999991'
BP,ioos:station:wmo:42369:4,2022-06-03T14:00:00Z,27.2144,-90.2813,1343.0,1.4,351.9,-9999.0,'111331111,111111111,999999991'
BP,ioos:station:wmo:42369:4,2022-06-03T14:20:00Z,27.2144,-90.2813,1343.0,2.2,50.5,-9999.0,'111331111,111111111,999999991'
BP,ioos:station:wmo:42369:4,2022-06-03T15:00:00Z,27.2142,-90.2814,1343.0,2.4,53.6,-9999.0,'111331111,111111111,999999991'
BP,ioos:station:wmo:42369:4,2022-06-03T15:20:00Z,27.2142,-90.2814,1343.0,2.0,53.1,-9999.0,'111331111,111111111,999999991'
BP,ioos:station:wmo:42369:4,2022-06-03T15:40:00Z,27.2141,-90.2813,1343.0,1.7,65.0,-9999.0,'111331111,111111111,999999991'
BP,ioos:station:wmo:42369:4,2022-06-03T16:00:00Z,27.2141,-90.2813,1343.0,2.2,100.3,-9999.0,'111331111,111111111,999999991'
BP,ioos:station:wmo:42369:4,2022-06-03T16:20:00Z,27.2139,-90.2817,1343.0,3.1,132.4,-9999.0,'111111111,111111111,999999991'
BP,ioos:station:wmo:42369:4,2022-06-03T16:40:00Z,27.2138,-90.2818,1343.0,3.1,150.9,-9999.0,'111111111,111111111,999999991'
BP,ioos:station:wmo:42369:4,2022-06-03T17:00:00Z,27.2138,-90.2819,1343.0,2.8,161.6,-9999.0,'111331111,111111111,999999991'
BP,ioos:station:wmo:42369:4,2022-06-03T17:20:00Z,27.2136,-90.2821,1343.0,2.6,150.5,-9999.0,'111331111,111111111,999999991'
BP,ioos:station:wmo:42369:4,2022-06-03T17:40:00Z,27.2134,-90.2825,1343.0,2.3,162.3,-9999.0,'111331111,111111111,999999991'
BP,ioos:station:wmo:42369:4,2022-06-03T18:00:00Z,27.2134,-90.2825,1343.0,2.5,191.3,-9999.0,'111331111,111111111,999999991'
BP,ioos:station:wmo:42369:4,2022-06-03T18:20:00Z,27.2132,-90.2828,1343.0,2.2,219.5,-9999.0,'111331111,111111111,999999991'
BP,ioos:station:wmo:42369:4,2022-06-03T18:40:00Z,27.2132,-90.2828,1343.0,4.1,209.1,-9999.0,'111111111,111111111,999999991'
BP,ioos:station:wmo:42369:4,2022-06-03T19:00:00Z,27.2128,-90.2832,1343.0,2.9,216.5,-9999.0,'111331111,111111111,999999991'
BP,ioos:station:wmo:42369:4,2022-06-03T19:20:00Z,27.2127,-90.2834,1343.0,3.3,218.9,-9999.0,'111111111,111111111,999999991'
BP,ioos:station:wmo:42369:4,2022-06-03T19:40:00Z,27.2125,-90.2839,1343.0,2.5,228.2,-9999.0,'111331111,111111111,999999991'
BP,ioos:station:wmo:42369:4,2022-06-03T20:00:00Z,27.2123,-90.2842,1343.0,2.9,213.7,-9999.0,'111331111,111111111,999999991'
BP,ioos:station:wmo:42369:4,2022-06-03T20:20:00Z,27.2123,-90.2842,1343.0,3.3,211.3,-9999.0,'111111111,111111111,999999991'
BP,ioos:station:wmo:42369:4,2022-06-03T20:40:00Z,27.2122,-90.2847,1343.0,1.0,216.9,-9999.0,'111331111,111111111,999999991'
BP,ioos:station:wmo:42369:4,2022-06-03T21:00:00Z,27.2122,-90.2852,1343.0,2.6,223.5,-9999.0,'111331111,111111111,999999991'
BP,ioos:station:wmo:42369:4,2022-06-03T21:20:00Z,27.2122,-90.2852,1343.0,2.7,216.0,-9999.0,'111331111,111111111,999999991'
BP,ioos:station:wmo:42369:4,2022-06-03T21:40:00Z,27.2123,-90.2855,1343.0,3.4,202.8,-9999.0,'111111111,111111111,999999991'
BP,ioos:station:wmo:42369:4,2022-06-03T22:00:00Z,27.2124,-90.2857,1343.0,3.9,221.9,-9999.0,'111111111,111111111,999999991'
BP,ioos:station:wmo:42369:4,2022-06-03T22:20:00Z,27.2124,-90.2857,1343.0,2.7,228.0,-9999.0,'111331111,111111111,999999991'
BP,ioos:station:wmo:42369:4,2022-06-03T22:40:00Z,27.2126,-90.2858,1343.0,3.3,207.3,-9999.0,'111111111,111111111,999999991'
BP,ioos:station:wmo:42369:4,2022-06-03T23:00:00Z,27.2127,-90.2858,1343.0,2.7,199.8,-9999.0,'111331111,111111111,999999991'